Dole Tavaux, France

11:12 AM CEST on July 21, 2017 (GMT +0200)
Tavaux

Weather History for LFGJ - November, 2012

Change the Weather History Date:

Wednesday, November 21, 2012

  Actual Average (LFSD) Record (LFSD)
Temperature  
Mean Temperature 40 °F -  
Max Temperature 46 °F 44 °F 61 °F (2016)
Min Temperature 33 °F 33 °F 17 °F (2005)
Degree Days  
Heating Degree Days 26    
Moisture  
Dew Point 39 °F    
Average Humidity 97    
Maximum Humidity 100    
Minimum Humidity 93    
Precipitation  
Precipitation 0.00 in - - ()
Sea Level Pressure  
Sea Level Pressure 30.07 in    
Wind  
Wind Speed 2 mph ()    
Max Wind Speed 6 mph    
Max Gust Speed -    
Visibility 1.4 miles    
Events Fog , Rain    
Averages and records for this station are not official NWS values.
T = Trace of Precipitation, MM = Missing Value Source: Averaged Metar Reports

Daily Weather History Graph

Daily Weather History Graph

Search for Another Location

Airport or City:

Trip Planner

Search our weather history database for the weather conditions in past years. The results will help you decide how hot, cold, wet, or windy it might be!

Date:

Astronomy

Nov. 21, 2012 Rise Set
Actual Time 7:50 AM CET 4:57 PM CET
Civil Twilight 7:16 AM CET 5:31 PM CET
Nautical Twilight 6:39 AM CET 6:08 PM CET
Astronomical Twilight 6:03 AM CET 6:44 PM CET
Moon 1:29 PM CET 12:27 AM CET
Length of Visible Light 10h 14m
Length of Day
9h 06m
First Quarter, 59% of the Moon is Illuminated
Nov 21
First Quarter
Nov 28
Full
Dec 6
Last Quarter
Dec 13
New
Dec 20
First Quarter

Hourly Weather History & Observations

Time (CET) Temp. Windchill Dew Point Humidity Pressure Visibility Wind Dir Wind Speed Gust Speed Precip Events Conditions
12:00 AM 37.4 °F - 37.4 °F 100% 30.04 in 0.2 mi Variable 2.3 mph - N/A Fog Fog
12:30 AM 37.4 °F - 37.4 °F 100% 30.04 in 0.2 mi Variable 1.2 mph - N/A Fog Fog
1:00 AM 37.4 °F - 35.6 °F 93% 30.01 in 0.2 mi Variable 2.3 mph - N/A Fog Fog
1:30 AM 37.4 °F 34.9 °F 37.4 °F 100% 30.01 in 0.2 mi Variable 3.5 mph - N/A Fog Fog
2:00 AM 37.4 °F - 35.6 °F 93% 30.01 in 0.2 mi Calm Calm - N/A Fog Fog
2:30 AM 37.4 °F 34.9 °F 35.6 °F 93% 30.01 in 0.2 mi South 3.5 mph - N/A Fog Fog
3:00 AM 35.6 °F 32.8 °F 35.6 °F 100% 30.01 in 0.2 mi Variable 3.5 mph - N/A Fog Fog
3:30 AM 35.6 °F 32.8 °F 35.6 °F 100% 30.01 in 0.3 mi ESE 3.5 mph - N/A Fog Fog
4:00 AM 35.6 °F - 35.6 °F 100% 29.98 in - Variable 2.3 mph - N/A Fog Fog
4:30 AM 35.6 °F 32.8 °F 35.6 °F 100% 29.98 in 0.2 mi South 3.5 mph - N/A Fog Fog
5:00 AM 35.6 °F 32.8 °F 35.6 °F 100% 29.98 in 0.2 mi ESE 3.5 mph - N/A Fog Fog
5:30 AM 33.8 °F 30.8 °F 33.8 °F 100% 29.98 in 0.2 mi Variable 3.5 mph - N/A Fog Fog
6:00 AM 33.8 °F 30.8 °F 33.8 °F 100% 29.98 in 0.2 mi Variable 3.5 mph - N/A Fog Fog
6:30 AM 33.8 °F - 33.8 °F 100% 29.98 in 0.2 mi Calm Calm - N/A Fog Fog
7:00 AM 33.8 °F - 33.8 °F 100% 29.98 in 0.2 mi Variable 2.3 mph - N/A Fog Fog
7:30 AM 33.8 °F 30.8 °F 33.8 °F 100% 30.01 in 0.2 mi SE 3.5 mph - N/A Fog Fog
8:00 AM 33.8 °F - 33.8 °F 100% 30.01 in 0.2 mi Variable 2.3 mph - N/A Fog Fog
8:30 AM 33.8 °F - 33.8 °F 100% 30.01 in 0.2 mi Variable 2.3 mph - N/A Fog Fog
9:00 AM 33.8 °F - 33.8 °F 100% 30.01 in 0.2 mi Variable 2.3 mph - N/A Fog Fog
9:30 AM 35.6 °F - 35.6 °F 100% 30.01 in 0.2 mi Calm Calm - N/A Fog Fog
10:00 AM 35.6 °F - 35.6 °F 100% 30.01 in 0.6 mi Variable 2.3 mph - N/A Fog Fog
10:30 AM 35.6 °F 32.8 °F 35.6 °F 100% 30.04 in 1.4 mi SSW 3.5 mph - N/A   Overcast
11:00 AM 37.4 °F - 35.6 °F 93% 30.04 in - Variable 2.3 mph - N/A   Overcast
11:30 AM 37.4 °F 34.9 °F 37.4 °F 100% 30.04 in 2.5 mi SSW 3.5 mph - N/A   Overcast
12:00 PM 39.2 °F 37.0 °F 39.2 °F 100% 30.04 in - SSW 3.5 mph - N/A   Overcast
12:30 PM 39.2 °F 37.0 °F 39.2 °F 100% 30.04 in 3.1 mi Variable 3.5 mph - N/A   Mostly Cloudy
1:00 PM 41.0 °F 38.0 °F 41.0 °F 100% 30.06 in 3.7 mi SSE 4.6 mph - N/A   Mostly Cloudy
1:30 PM 42.8 °F 41.1 °F 41.0 °F 93% 30.06 in 4.3 mi South 3.5 mph - N/A   Unknown
2:00 PM 44.6 °F 43.1 °F 42.8 °F 93% 30.06 in 4.3 mi South 3.5 mph - N/A   Unknown
2:30 PM 44.6 °F 42.2 °F 42.8 °F 93% 30.06 in 4.3 mi South 4.6 mph - N/A   Unknown
3:00 PM 44.6 °F 42.2 °F 42.8 °F 93% 30.09 in 3.7 mi SSW 4.6 mph - N/A Rain Light Rain
3:30 PM 46.4 °F 45.2 °F 44.6 °F 93% 30.09 in - SSW 3.5 mph - N/A Rain Light Rain
4:00 PM 46.4 °F - 44.6 °F 93% 30.09 in - South 2.3 mph - N/A Rain Light Rain
4:30 PM 46.4 °F 44.3 °F 44.6 °F 93% 30.12 in - South 4.6 mph - N/A Rain Light Rain
5:00 PM 46.4 °F 45.2 °F 44.6 °F 93% 30.12 in 3.1 mi South 3.5 mph - N/A Rain Light Rain
5:30 PM 46.4 °F - 44.6 °F 93% 30.12 in 3.1 mi Calm Calm - N/A Rain Light Rain
6:00 PM 44.6 °F - 44.6 °F 100% 30.12 in 1.6 mi East 2.3 mph - N/A Rain Light Rain
6:30 PM 44.6 °F - 44.6 °F 100% 30.15 in 1.6 mi Variable 2.3 mph - N/A Rain Light Rain
7:00 PM 46.4 °F 45.2 °F 44.6 °F 93% 30.15 in - SSE 3.5 mph - N/A Rain Light Rain
7:30 PM 46.4 °F 44.3 °F 44.6 °F 93% 30.15 in 3.7 mi South 4.6 mph - N/A   Unknown
8:00 PM 46.4 °F - 44.6 °F 93% 30.15 in 4.3 mi Calm Calm - N/A   Overcast
8:30 PM 46.4 °F - 44.6 °F 93% 30.18 in - Variable 2.3 mph - N/A Rain Light Rain
9:00 PM 46.4 °F - 44.6 °F 93% 30.18 in - South 2.3 mph - N/A   Overcast
9:30 PM 44.6 °F - 44.6 °F 100% 30.18 in 1.6 mi Variable 2.3 mph - N/A   Overcast
10:00 PM 46.4 °F 43.5 °F 46.4 °F 100% 30.18 in - South 5.8 mph - N/A   Mist
10:30 PM 46.4 °F 45.2 °F 44.6 °F 93% 30.21 in - South 3.5 mph - N/A   Mist
11:00 PM 46.4 °F - 44.6 °F 93% 30.21 in 1.6 mi Variable 1.2 mph - N/A   Mist
11:30 PM 44.6 °F - 42.8 °F 93% 30.21 in 0.2 mi South 2.3 mph - N/A Fog Fog